Weather History for Liberal, KS

Change the Weather History Date:

Saturday, February 9, 2013

  Actual Average Record
Temperature  
Mean Temperature 44 °F -  
Max Temperature 60 °F 48 °F 80 °F (1976)
Min Temperature 28 °F 19 °F -3 °F (1982)
Degree Days  
Heating Degree Days 21    
Moisture  
Dew Point 25 °F    
Average Humidity 47    
Maximum Humidity 71    
Minimum Humidity 31    
Precipitation  
Precipitation 0.00 in - - ()
Sea Level Pressure  
Sea Level Pressure 29.72 in    
Wind  
Wind Speed 17 mph (South)    
Max Wind Speed 32 mph    
Max Gust Speed 38 mph    
Visibility 10 miles    
Events      
Averages and records for this station are not official NWS values.
T = Trace of Precipitation, MM = Missing Value Source: NWS Daily Summary

Daily Weather History Graph

Daily Weather History Graph

Search for Another Location

Airport:

Trip Planner

Search our weather history database for the weather conditions in past years. The results will help you decide how hot, cold, wet, or windy it might be!

Date:

Astronomy

Feb. 09, 2013 Rise Set
Actual Time 7:38 AM CST 6:17 PM CST
Civil Twilight 7:11 AM CST 6:44 PM CST
Nautical Twilight 6:41 AM CST 7:15 PM CST
Astronomical Twilight 6:10 AM CST 7:45 PM CST
Moon 6:51 AM CST (2/9) 6:01 PM CST (2/9)
Length of Visible Light 11h 32m
Length of Day
10h 39m
Waning Crescent, 0% of the Moon is Illuminated
Feb 9
Waning Crescent
Feb 10
New
Feb 17
First Quarter
Feb 25
Full
Mar 4
Last Quarter

Hourly Weather History & Observations

Time (CST) Temp. Windchill Dew Point Humidity Pressure Visibility Wind Dir Wind Speed Gust Speed Precip Events Conditions
12:15 AM 37.4 °F 28.9 °F 12.2 °F 36% 30.00 in 10.0 mi South 13.8 mph - N/A   Clear
12:35 AM 37.4 °F 29.3 °F 12.2 °F 36% 30.00 in 10.0 mi South 12.7 mph - N/A   Clear
12:55 AM 35.6 °F 28.0 °F 12.2 °F 38% 29.99 in 10.0 mi South 10.4 mph - N/A   Clear
1:15 AM 33.8 °F 25.8 °F 12.2 °F 41% 29.98 in 10.0 mi South 10.4 mph - N/A   Clear
1:35 AM 33.8 °F 24.3 °F 12.2 °F 41% 29.97 in 10.0 mi South 13.8 mph - N/A   Clear
1:55 AM 33.8 °F 24.8 °F 12.2 °F 41% 29.96 in 10.0 mi South 12.7 mph - N/A   Clear
2:15 AM 33.8 °F 24.8 °F 12.2 °F 41% 29.96 in 10.0 mi South 12.7 mph - N/A   Clear
2:35 AM 33.8 °F 24.8 °F 14.0 °F 44% 29.95 in 10.0 mi South 12.7 mph - N/A   Clear
2:55 AM 33.8 °F 25.8 °F 15.8 °F 48% 29.94 in 10.0 mi South 10.4 mph - N/A   Clear
3:15 AM 33.8 °F 26.4 °F 15.8 °F 48% 29.94 in 10.0 mi SSE 9.2 mph - N/A   Clear
3:35 AM 33.8 °F 25.8 °F 14.0 °F 44% 29.93 in 10.0 mi South 10.4 mph - N/A   Clear
3:55 AM 32.0 °F 23.0 °F 14.0 °F 48% 29.93 in 10.0 mi South 11.5 mph - N/A   Clear
4:15 AM 32.0 °F 24.8 °F 15.8 °F 51% 29.92 in 10.0 mi SSE 8.1 mph - N/A   Clear
4:35 AM 30.2 °F 23.4 °F 14.0 °F 51% 29.91 in 10.0 mi SSE 6.9 mph - N/A   Clear
4:55 AM 28.4 °F 21.2 °F 12.2 °F 51% 29.91 in 10.0 mi South 6.9 mph - N/A   Clear
5:15 AM 28.4 °F 20.4 °F 15.8 °F 59% 29.89 in 10.0 mi SSE 8.1 mph - N/A   Clear
5:35 AM 28.4 °F 21.2 °F 14.0 °F 55% 29.89 in 10.0 mi SE 6.9 mph - N/A   Clear
5:55 AM 32.0 °F 25.6 °F 17.6 °F 55% 29.89 in 10.0 mi ESE 6.9 mph - N/A   Clear
6:15 AM 32.0 °F 23.6 °F 15.8 °F 51% 29.88 in 10.0 mi SE 10.4 mph - N/A   Clear
6:35 AM 32.0 °F 24.8 °F 15.8 °F 51% 29.87 in 10.0 mi SE 8.1 mph - N/A   Clear
6:55 AM 32.0 °F 24.2 °F 15.8 °F 51% 29.87 in 10.0 mi SE 9.2 mph - N/A   Scattered Clouds
7:15 AM 33.8 °F 25.3 °F 17.6 °F 52% 29.85 in 10.0 mi SE 11.5 mph - N/A   Mostly Cloudy
7:35 AM 32.0 °F 24.8 °F 15.8 °F 51% 29.85 in 10.0 mi SSE 8.1 mph - N/A   Partly Cloudy
7:55 AM 30.2 °F 22.6 °F 15.8 °F 55% 29.84 in 10.0 mi SE 8.1 mph - N/A   Clear
8:15 AM 32.0 °F 25.6 °F 17.6 °F 55% 29.85 in 10.0 mi SSE 6.9 mph - N/A   Clear
8:35 AM 33.8 °F 27.0 °F 17.6 °F 52% 29.84 in 10.0 mi SSE 8.1 mph - N/A   Clear
8:55 AM 35.6 °F 27.1 °F 19.4 °F 52% 29.83 in 10.0 mi SSE 12.7 mph - N/A   Clear
9:15 AM 39.2 °F 31.2 °F 21.2 °F 49% 29.82 in 10.0 mi SSE 13.8 mph - N/A   Clear
9:35 AM 42.8 °F 34.8 °F 23.0 °F 46% 29.81 in 10.0 mi SSE 17.3 mph 21.9 mph N/A   Clear
9:55 AM 44.6 °F 35.7 °F 24.8 °F 46% 29.81 in 10.0 mi South 24.2 mph 29.9 mph N/A   Clear
10:15 AM 46.4 °F 37.9 °F 24.8 °F 43% 29.80 in 10.0 mi South 25.3 mph 28.8 mph N/A   Clear
10:35 AM 48.2 °F - 24.8 °F 40% 29.80 in 10.0 mi South 26.5 mph 33.4 mph N/A   Clear
10:55 AM 48.2 °F - 24.8 °F 40% 29.79 in 10.0 mi South 28.8 mph 33.4 mph N/A   Clear
11:15 AM 50.0 °F - 26.6 °F 40% 29.77 in 10.0 mi South 27.6 mph 36.8 mph N/A   Clear
11:35 AM 51.8 °F - 26.6 °F 38% 29.76 in 10.0 mi South 20.7 mph 36.8 mph N/A   Clear
11:55 AM 53.6 °F - 28.4 °F 38% 29.74 in 10.0 mi South 27.6 mph 34.5 mph N/A   Clear
12:15 PM 55.4 °F - 30.2 °F 38% 29.73 in 10.0 mi South 29.9 mph 33.4 mph N/A   Clear
12:35 PM 55.4 °F - 30.2 °F 38% 29.70 in 10.0 mi South 25.3 mph 32.2 mph N/A   Clear
12:55 PM 57.2 °F - 32.0 °F 38% 29.69 in 10.0 mi South 25.3 mph 35.7 mph N/A   Clear
1:15 PM 59.0 °F - 32.0 °F 36% 29.66 in 10.0 mi SSW 25.3 mph 32.2 mph N/A   Clear
1:35 PM 60.8 °F - 33.8 °F 36% 29.65 in 10.0 mi South 27.6 mph 33.4 mph N/A   Clear
1:55 PM 60.8 °F - 33.8 °F 36% 29.62 in 10.0 mi South 27.6 mph 34.5 mph N/A   Clear
2:15 PM 60.8 °F - 33.8 °F 36% 29.60 in 10.0 mi South 27.6 mph 36.8 mph N/A   Clear
2:35 PM 60.8 °F - 33.8 °F 36% 29.58 in 10.0 mi South 28.8 mph 34.5 mph N/A   Clear
2:55 PM 60.8 °F - 33.8 °F 36% 29.56 in 10.0 mi South 31.1 mph 38.0 mph N/A   Clear
3:15 PM 60.8 °F - 33.8 °F 36% 29.55 in 10.0 mi South 28.8 mph 38.0 mph N/A   Clear
3:35 PM 60.8 °F - 33.8 °F 36% 29.53 in 10.0 mi South 31.1 mph 38.0 mph N/A   Clear
3:55 PM 60.8 °F - 35.6 °F 39% 29.53 in 10.0 mi South 28.8 mph 36.8 mph N/A   Clear
4:15 PM 59.0 °F - 35.6 °F 42% 29.52 in 10.0 mi South 31.1 mph 38.0 mph N/A   Clear
4:35 PM 57.2 °F - 35.6 °F 44% 29.51 in 10.0 mi SSE 26.5 mph 36.8 mph N/A   Clear
4:55 PM 57.2 °F - 35.6 °F 44% 29.50 in 10.0 mi SSE 27.6 mph 35.7 mph N/A   Clear
5:15 PM 55.4 °F - 37.4 °F 51% 29.50 in 10.0 mi SSE 25.3 mph 33.4 mph N/A   Clear
5:35 PM 55.4 °F - 37.4 °F 51% 29.49 in 10.0 mi SSE 24.2 mph 33.4 mph N/A   Clear
5:55 PM 53.6 °F - 37.4 °F 54% 29.48 in 10.0 mi SSE 24.2 mph 32.2 mph N/A   Clear
6:15 PM 53.6 °F - 37.4 °F 54% 29.47 in 10.0 mi SSE 23.0 mph 31.1 mph N/A   Clear
6:35 PM 51.8 °F - 37.4 °F 58% 29.48 in 10.0 mi SSE 21.9 mph 27.6 mph N/A   Mostly Cloudy
6:55 PM 50.0 °F - 37.4 °F 62% 29.51 in 10.0 mi South 32.2 mph 36.8 mph N/A   Scattered Clouds
7:35 PM 48.2 °F - 39.2 °F 71% 29.53 in 10.0 mi South 24.2 mph - N/A   Overcast
7:55 PM 48.2 °F - 39.2 °F 71% 29.53 in 10.0 mi South 25.3 mph 33.4 mph N/A   Overcast
8:15 PM 48.2 °F - 39.2 °F 71% 29.54 in 10.0 mi South 25.3 mph 32.2 mph N/A   Mostly Cloudy
8:35 PM 48.2 °F - 39.2 °F 71% 29.53 in 10.0 mi South 25.3 mph 33.4 mph N/A   Partly Cloudy
8:55 PM 48.2 °F - 39.2 °F 71% 29.52 in 10.0 mi South 27.6 mph 32.2 mph N/A   Clear
9:15 PM 48.2 °F - 39.2 °F 71% 29.52 in 10.0 mi South 24.2 mph - N/A   Clear
9:35 PM 50.0 °F - 33.8 °F 54% 29.51 in 10.0 mi SSW 24.2 mph 31.1 mph N/A   Clear
9:55 PM 50.0 °F - 28.4 °F 43% 29.51 in 10.0 mi SSW 24.2 mph 28.8 mph N/A   Clear
10:15 PM 50.0 °F - 24.8 °F 37% 29.52 in 10.0 mi SW 23.0 mph 35.7 mph N/A   Clear
10:35 PM 48.2 °F - 21.2 °F 34% 29.52 in 10.0 mi SW 24.2 mph 31.1 mph N/A   Clear
10:55 PM 46.4 °F 37.9 °F 19.4 °F 34% 29.51 in 10.0 mi SW 25.3 mph 32.2 mph N/A   Clear
11:15 PM 44.6 °F 34.6 °F 17.6 °F 34% 29.53 in 10.0 mi SW 31.1 mph 38.0 mph N/A   Clear
11:35 PM 44.6 °F 36.4 °F 15.8 °F 31% 29.54 in 10.0 mi SW 20.7 mph 31.1 mph N/A   Clear
11:55 PM 41.0 °F 32.5 °F 14.0 °F 33% 29.53 in 10.0 mi SSW 17.3 mph - N/A   Clear